Weather History for Crossville, TN

Change the Weather History Date:

Sunday, January 27, 2013

  Actual Average Record
Temperature  
Mean Temperature 36 °F 36 °F  
Max Temperature 47 °F 45 °F 67 °F (1999)
Min Temperature 25 °F 27 °F -5 °F (1986)
Degree Days  
Heating Degree Days 29    
Month to date heating degree days 707  
Since 1 July heating degree days 2319  
Cooling Degree Days 0    
Month to date cooling degree days 0  
Year to date cooling degree days 0  
Moisture  
Dew Point 29 °F    
Average Humidity 75    
Maximum Humidity 100    
Minimum Humidity 49    
Precipitation  
Precipitation 0.02 in 0.14 in 1.98 in (1957)
Month to date precipitation 4.90 4.14  
Year to date precipitation 4.90 4.14  
Sea Level Pressure  
Sea Level Pressure 30.34 in    
Wind  
Wind Speed 6 mph (SSE)    
Max Wind Speed 15 mph    
Max Gust Speed 22 mph    
Visibility 7 miles    
Events Rain    
T = Trace of Precipitation, MM = Missing Value Source: NWS Daily Summary

Daily Weather History Graph

Daily Weather History Graph

Search for Another Location

Airport:

Trip Planner

Search our weather history database for the weather conditions in past years. The results will help you decide how hot, cold, wet, or windy it might be!

Date:

Astronomy

Jan. 27, 2013 Rise Set
Actual Time 6:44 AM CST 5:02 PM CST
Civil Twilight 6:17 AM CST 5:29 PM CST
Nautical Twilight 5:46 AM CST 6:00 PM CST
Astronomical Twilight 5:15 AM CST 6:30 PM CST
Moon 5:52 PM CST (1/27) 6:39 AM CST (1/27)
Length of Visible Light 11h 12m
Length of Day
10h 18m
Full, 100% of the Moon is Illuminated
Jan 27
Full
Feb 3
Last Quarter
Feb 10
New
Feb 17
First Quarter
Feb 25
Full

Hourly Weather History & Observations

Time (CST) Temp. Windchill Dew Point Humidity Pressure Visibility Wind Dir Wind Speed Gust Speed Precip Events Conditions
12:53 AM 26.1 °F - 25.0 °F 96% 30.35 in 3.0 mi Calm Calm - N/A   Clear
1:53 AM 26.1 °F 21.9 °F 24.1 °F 92% 30.34 in 3.0 mi East 3.5 mph - N/A   Clear
2:10 AM 26.6 °F - 24.8 °F 93% 30.31 in 2.5 mi Calm Calm - N/A   Partly Cloudy
2:24 AM 24.8 °F 19.1 °F 23.0 °F 93% 30.30 in 2.0 mi NE 4.6 mph - N/A   Mostly Cloudy
2:50 AM 26.6 °F - 24.8 °F 93% 30.31 in 2.5 mi Calm Calm - N/A   Scattered Clouds
2:53 AM 25.0 °F 20.7 °F 24.1 °F 96% 30.34 in 2.5 mi ESE 3.5 mph - N/A   Partly Cloudy
3:08 AM 26.6 °F - 24.8 °F 93% 30.30 in 3.0 mi Calm Calm - N/A   Clear
3:53 AM 26.1 °F - 24.1 °F 92% 30.34 in 5.0 mi Calm Calm - N/A   Clear
4:53 AM 28.0 °F 24.2 °F 25.0 °F 88% 30.34 in 7.0 mi SE 3.5 mph - N/A   Clear
5:53 AM 28.0 °F 24.2 °F 25.0 °F 88% 30.35 in 7.0 mi East 3.5 mph - N/A   Clear
6:53 AM 26.1 °F - 24.1 °F 92% 30.37 in 3.0 mi Calm Calm - N/A   Clear
7:53 AM 30.9 °F 26.2 °F 28.0 °F 89% 30.38 in 5.0 mi SE 4.6 mph - N/A   Overcast
8:53 AM 34.0 °F 28.8 °F 28.9 °F 82% 30.40 in 9.0 mi SE 5.8 mph - N/A   Overcast
9:53 AM 39.9 °F 35.8 °F 30.9 °F 70% 30.40 in 10.0 mi Variable 5.8 mph - N/A   Scattered Clouds
10:53 AM 43.0 °F 40.3 °F 30.0 °F 60% 30.39 in 10.0 mi SSE 4.6 mph - N/A   Clear
11:53 AM 46.9 °F - 30.0 °F 52% 30.37 in 10.0 mi Variable 6.9 mph - N/A   Overcast
12:53 PM 46.9 °F - 28.9 °F 50% 30.35 in 10.0 mi Variable 6.9 mph 18.4 mph N/A   Overcast
1:53 PM 46.9 °F - 30.0 °F 52% 30.33 in 10.0 mi South 8.1 mph - N/A   Overcast
2:53 PM 45.0 °F 40.1 °F 30.0 °F 56% 30.35 in 10.0 mi South 9.2 mph 17.3 mph N/A   Overcast
3:13 PM 44.6 °F 40.7 °F 30.2 °F 57% 30.32 in 10.0 mi Variable 6.9 mph - N/A   Overcast
3:53 PM 45.0 °F 41.8 °F 30.9 °F 58% 30.35 in 10.0 mi South 5.8 mph - N/A   Overcast
4:53 PM 45.0 °F 40.6 °F 32.0 °F 60% 30.34 in 10.0 mi SSE 8.1 mph - N/A   Overcast
6:28 PM 44.6 °F 40.7 °F 33.8 °F 66% 30.31 in 10.0 mi SSE 6.9 mph - N/A   Overcast
6:53 PM 44.1 °F 38.6 °F 34.0 °F 68% 30.35 in 10.0 mi South 10.4 mph - N/A   Overcast
7:53 PM 44.1 °F 39.0 °F 34.0 °F 68% 30.32 in 10.0 mi SSE 9.2 mph 17.3 mph N/A   Overcast
8:25 PM 42.8 °F 38.6 °F 35.6 °F 76% 30.29 in 8.0 mi South 6.9 mph 17.3 mph 0.00 in Rain Light Rain
8:53 PM 42.1 °F 37.1 °F 36.0 °F 79% 30.32 in 9.0 mi South 8.1 mph - 0.02 in Rain Light Rain
9:53 PM 44.1 °F 39.5 °F 33.1 °F 65% 30.30 in 10.0 mi South 8.1 mph - 0.00 in   Clear
10:53 PM 45.0 °F 39.7 °F 32.0 °F 60% 30.30 in 10.0 mi South 10.4 mph 16.1 mph N/A   Partly Cloudy
11:53 PM 44.1 °F 38.6 °F 30.0 °F 58% 30.30 in 10.0 mi South 10.4 mph 21.9 mph N/A   Partly Cloudy